(346205) = 2007 XF47 = 2008 HC69

Discovered at Kitt Peak on 2007-12-15 by Spacewatch.

Orbit

Orbit type: Main Belt

Note: WebGL enabled browser required.

epoch2023-09-13.0
epoch JD2460200.5
perihelion date2018-07-15.60547
perihelion JD2458315.10547
argument of perihelion (°)161.73435
ascending node (°)282.81525
inclination (°)10.90274
eccentricity0.1394451
perihelion distance (AU)2.6422825
Tisserand w.r.t. Jupiter3.2
ΔV w.r.t. Earth (km/sec)10.7
semimajor axis (AU)3.0704403
mean anomaly (°)345.38630
mean daily motion (°/day)0.18319050
aphelion distance (AU)3.499
period (years)5.38
P-vector [x]0.08946740
P-vector [y]0.88860177
P-vector [z]0.44986940
Q-vector [x]-0.97876494
Q-vector [y]0.16207989
Q-vector [z]-0.12549625
absolute magnitude16.02
phase slope0.15
uncertainty0
referenceMPEC 2024-A34
observations used258
oppositions13
arc length (days)11681
first opposition used1992
last opposition used2024
residual rms (arc-secs)0.78
perturbers coarse indicatorM-v
perturbers precise indicator003Ek
first observation date used1992-01-10.0
last observation date used2024-01-03.0
computer nameMPCLINUX
JD of orbit computation2456760.700319
perihelion JD uncertainty (days)1.5225E-04
argument of perihelion uncertainty (°)4.6428E-05
ascending node uncertainty (°)3.3040E-05
inclination uncertainty (°)8.4352E-06
eccentricity uncertainty 7.1943E-08
perihelion distance uncertainty (AU)2.2321E-07
Minimum Orbit Intersection Distances (in AU)
for orbit epoch: 2460200.5, reference: E2024-A34
Mercury2.33422
Venus1.92349
Earth1.65975
Mars1.05848
Jupiter1.71976
Saturn6.40549
Uranus15.437
Neptune26.8418

Observations

261 total observations over interval: 1992 01 10.20841 – 2024 01 03.331416
These data are available for download (format description).

Date (UT) J2000 RA J2000 Dec Magn Location Ref
1992 01 10.20841 07 40 34.26 +18 47 27.1   691 – Steward Observatory, Kitt Peak-Spacewatch MPS 280250
1992 01 10.23110 07 40 32.96 +18 47 22.8   691 – Steward Observatory, Kitt Peak-Spacewatch MPS 280250
1992 01 10.25358 07 40 31.56 +18 47 22.1 20.3 V 691 – Steward Observatory, Kitt Peak-Spacewatch MPS 280250
2000 07 10.41065 20 49 18.58 -11 56 08.4 21.4 V 691 – Steward Observatory, Kitt Peak-Spacewatch MPS 280250
2000 07 10.43205 20 49 17.71 -11 56 07.9 21.6 V 691 – Steward Observatory, Kitt Peak-Spacewatch MPS 280250
2000 07 10.45344 20 49 16.76 -11 56 07.9 21.6 V 691 – Steward Observatory, Kitt Peak-Spacewatch MPS 280250
2007 11 06.42405 07 15 53.35 +26 15 49.3 21.4 V G96 – Mt. Lemmon Survey MPS 280250
2007 11 06.42955 07 15 53.42 +26 15 48.0 21.3 V G96 – Mt. Lemmon Survey MPS 280250
2007 11 06.43508 07 15 53.56 +26 15 47.3 21.8 V G96 – Mt. Lemmon Survey MPS 280250
2007 11 06.44061 07 15 53.64 +26 15 47.1 20.6 V G96 – Mt. Lemmon Survey MPS 280250
2007 12 04.41281 07 12 16.52 +25 03 14.8 20.1 V G96 – Mt. Lemmon Survey MPS 280250
2007 12 04.42016 07 12 16.23 +25 03 13.8 20.2 V G96 – Mt. Lemmon Survey MPS 280250
2007 12 04.42749 07 12 15.98 +25 03 12.6 20.3 V G96 – Mt. Lemmon Survey MPS 280250
2007 12 04.43486 07 12 15.73 +25 03 11.7 20.4 V G96 – Mt. Lemmon Survey MPS 280250
2007 12 15.35427 07 04 44.55 +24 33 56.8 20.2 V 691 – Steward Observatory, Kitt Peak-Spacewatch MPS 231898
2007 12 15.37192 07 04 43.65 +24 33 53.3 20.8 V 691 – Steward Observatory, Kitt Peak-Spacewatch MPS 231898
2007 12 15.39276 07 04 42.59 +24 33 49.8 20.5 V 691 – Steward Observatory, Kitt Peak-Spacewatch MPS 231898
2007 12 19.39993 07 01 17.73 +24 22 23.8 19.3 V 691 – Steward Observatory, Kitt Peak-Spacewatch MPS 231898
2007 12 19.41761 07 01 16.73 +24 22 21.1 19.5 V 691 – Steward Observatory, Kitt Peak-Spacewatch MPS 231898
2007 12 19.43529 07 01 15.76 +24 22 18.0 19.6 V 691 – Steward Observatory, Kitt Peak-Spacewatch MPS 231898
2008 01 11.11959 06 39 26.60 +23 08 18.3 19.5 V 691 – Steward Observatory, Kitt Peak-Spacewatch MPS 280250
2008 01 11.13725 06 39 25.59 +23 08 14.6 19.4 V 691 – Steward Observatory, Kitt Peak-Spacewatch MPS 280250
2008 01 11.15489 06 39 24.58 +23 08 10.9 19.4 V 691 – Steward Observatory, Kitt Peak-Spacewatch MPS 280250
2008 04 28.12682 07 16 08.47 +17 47 26.5 21.2 V G96 – Mt. Lemmon Survey MPC 65558
2008 04 28.13135 07 16 08.76 +17 47 26.5 21.3 V G96 – Mt. Lemmon Survey MPC 65558
2008 04 28.13589 07 16 09.19 +17 47 25.8 20.3 V G96 – Mt. Lemmon Survey MPC 65558
2008 04 28.14051 07 16 09.51 +17 47 23.9 22.0 V G96 – Mt. Lemmon Survey MPC 65558
2011 08 21.31990 21 33 58.276 -03 04 44.11 20.2 r F51 – Pan-STARRS 1, Haleakala MPS 388659
2011 08 21.33087 21 33 57.728 -03 04 45.55 20.3 r F51 – Pan-STARRS 1, Haleakala MPS 388659
2011 08 21.36728 21 33 55.928 -03 04 50.32 20.2 i F51 – Pan-STARRS 1, Haleakala MPS 388659
2011 08 21.37935 21 33 55.329 -03 04 51.96 20.2 i F51 – Pan-STARRS 1, Haleakala MPS 388659
2011 09 04.29112 21 23 21.895 -03 40 50.76 20.5 i F51 – Pan-STARRS 1, Haleakala MPS 391197
2011 09 04.30208 21 23 21.423 -03 40 52.65 20.5 i F51 – Pan-STARRS 1, Haleakala MPS 391197
2011 10 01.16770 21 10 54.58 -04 52 38.5 20.1 J W91 – VHS-VISTA, Cerro Paranal MPS 678720
2011 10 01.16919 21 10 54.56 -04 52 39.1 20.1 Y W91 – VHS-VISTA, Cerro Paranal MPS 678720
2012 10 19.01756 03 58 39.24 +33 26 36.7 19.0 R 461 – University of Szeged, Piszkesteto Stn. (Konkol MPS 437926
2012 10 19.02804 03 58 38.93 +33 26 35.4 20.2 R 461 – University of Szeged, Piszkesteto Stn. (Konkol MPS 437926
2012 10 19.03852 03 58 38.64 +33 26 35.2 18.9 R 461 – University of Szeged, Piszkesteto Stn. (Konkol MPS 437926
2012 10 20.00088 03 58 13.27 +33 26 22.7 19.2 R 461 – University of Szeged, Piszkesteto Stn. (Konkol MPS 437926
2012 10 20.00310 03 58 13.25 +33 26 22.7 19.4 R 461 – University of Szeged, Piszkesteto Stn. (Konkol MPS 437926
2012 10 20.01196 03 58 13.00 +33 26 23.3 19.4 R 461 – University of Szeged, Piszkesteto Stn. (Konkol MPS 437926
2012 10 20.01418 03 58 12.90 +33 26 22.8 19.5 R 461 – University of Szeged, Piszkesteto Stn. (Konkol MPS 437926
2012 10 20.02302 03 58 12.68 +33 26 21.5 19.5 R 461 – University of Szeged, Piszkesteto Stn. (Konkol MPS 437926
2012 11 03.570520 03 48 57.805 +33 03 09.15 19.5 i F51 – Pan-STARRS 1, Haleakala MPS 439544
2012 11 03.582440 03 48 57.215 +33 03 06.86 19.3 i F51 – Pan-STARRS 1, Haleakala MPS 439544
2012 11 12.37808 03 41 25.29 +32 29 32.5 18.7 V 703 – Catalina Sky Survey MPS 441762
2012 11 12.38532 03 41 24.90 +32 29 31.2 19.2 V 703 – Catalina Sky Survey MPS 441762
2012 11 12.39257 03 41 24.39 +32 29 28.2 19.6 V 703 – Catalina Sky Survey MPS 441762
2012 11 12.39983 03 41 23.92 +32 29 26.9 19.0 V 703 – Catalina Sky Survey MPS 441762
2012 11 13.49260 03 40 24.27 +32 24 13.3 19.4 V G96 – Mt. Lemmon Survey MPS 441762
2012 11 13.49578 03 40 24.09 +32 24 12.5 19.3 V G96 – Mt. Lemmon Survey MPS 441762
2012 11 13.49896 03 40 23.88 +32 24 11.4 19.4 V G96 – Mt. Lemmon Survey MPS 441762
2012 11 13.50212 03 40 23.73 +32 24 10.5 19.3 V G96 – Mt. Lemmon Survey MPS 441762
2012 11 20.29536 03 34 07.96 +31 47 10.2 19.6 V 703 – Catalina Sky Survey MPS 443422
2012 11 20.30113 03 34 07.64 +31 47 08.1 19.4 V 703 – Catalina Sky Survey MPS 443422
2012 11 20.30699 03 34 07.21 +31 47 06.7 19.0 V 703 – Catalina Sky Survey MPS 443422
2012 11 20.31284 03 34 06.85 +31 47 04.5 19.2 V 703 – Catalina Sky Survey MPS 443422
2012 12 06.26962 03 20 38.07 +29 56 20.3 19.2 V 703 – Catalina Sky Survey MPS 445940
2012 12 06.27856 03 20 37.75 +29 56 17.3 18.7 V 703 – Catalina Sky Survey MPS 445940
2012 12 06.28751 03 20 37.35 +29 56 11.0 18.5 V 703 – Catalina Sky Survey MPS 445940
2012 12 06.29648 03 20 36.96 +29 56 07.8 19.4 V 703 – Catalina Sky Survey MPS 445940
2012 12 08.20718 03 19 16.80 +29 41 36.9 20.0   704 – Lincoln Laboratory ETS, New Mexico MPS 447731
2012 12 08.22065 03 19 16.21 +29 41 31.6 20.1   704 – Lincoln Laboratory ETS, New Mexico MPS 447731
2012 12 08.23365 03 19 15.58 +29 41 25.3 19.9   704 – Lincoln Laboratory ETS, New Mexico MPS 447731
2013 02 06.17010 03 27 44.10 +24 27 43.5 21.3 V G96 – Mt. Lemmon Survey MPS 456288
2013 02 06.17302 03 27 44.24 +24 27 43.5 20.6 V G96 – Mt. Lemmon Survey MPS 456288
2013 02 06.17593 03 27 44.35 +24 27 42.8 20.4 V G96 – Mt. Lemmon Survey MPS 456288
2013 02 06.17887 03 27 44.53 +24 27 43.0 20.4 V G96 – Mt. Lemmon Survey MPS 456288
2013 02 06.18630 03 27 44.89 +24 27 42.1 20.6 V G96 – Mt. Lemmon Survey MPS 456288
2013 02 06.19209 03 27 45.25 +24 27 41.5 20.7 V G96 – Mt. Lemmon Survey MPS 456288
2013 02 06.19791 03 27 45.57 +24 27 40.2 20.4 V G96 – Mt. Lemmon Survey MPS 456288
2013 02 06.20372 03 27 45.82 +24 27 39.8 20.5 V G96 – Mt. Lemmon Survey MPS 456288
2014 01 29.47234 11 18 36.89 -09 14 11.3 20.5 V 703 – Catalina Sky Survey MPS 500165
2014 01 29.47909 11 18 36.55 -09 14 11.5 20.2 V 703 – Catalina Sky Survey MPS 500165
2014 03 05.45361 10 54 36.691 -09 03 54.49 20.2 g F51 – Pan-STARRS 1, Haleakala MPS 505327
2014 03 05.46596 10 54 36.040 -09 03 52.02 20.2 g F51 – Pan-STARRS 1, Haleakala MPS 505327
2014 03 11.39778 10 49 45.268 -08 41 52.14 20.0 r F51 – Pan-STARRS 1, Haleakala MPS 506264
2014 03 11.40927 10 49 44.705 -08 41 49.18 20.0 r F51 – Pan-STARRS 1, Haleakala MPS 506264
2014 03 23.27510 10 40 58.22 -07 48 04.7 19.0 V 703 – Catalina Sky Survey MPS 508452
2014 03 23.28354 10 40 57.74 -07 48 02.7 19.8 V 703 – Catalina Sky Survey MPS 508452
2014 03 23.29200 10 40 57.42 -07 47 59.1 19.9 V 703 – Catalina Sky Survey MPS 508452
2014 03 23.30043 10 40 57.08 -07 47 55.7 20.2 V 703 – Catalina Sky Survey MPS 508452
2015 05 26.37655 15 43 55.787 -30 17 16.48 20.9 i F51 – Pan-STARRS 1, Haleakala MPS 609750
2015 05 26.38714 15 43 55.208 -30 17 13.67 20.7 i F51 – Pan-STARRS 1, Haleakala MPS 609750
2015 05 26.39773 15 43 54.655 -30 17 10.85 20.7 i F51 – Pan-STARRS 1, Haleakala MPS 609750
2015 05 26.40832 15 43 54.126 -30 17 07.77 20.7 i F51 – Pan-STARRS 1, Haleakala MPS 609750
2016 06 08.53499 20 36 05.451 -15 46 06.89 21.4 w F51 – Pan-STARRS 1, Haleakala MPS 716486
2016 06 08.54925 20 36 05.214 -15 46 05.60 21.2 w F51 – Pan-STARRS 1, Haleakala MPS 716486
